This is the latest recevied weather packets stored in our database for station/object R8AHC-W1. If no packets are shown the sender has not sent any weather packets the latest 10 day(s).
| Time | Temp. | Humidity | Pressure | Rain* | Wind** | Luminosity | Snow |
|---|---|---|---|---|---|---|---|
| 1777865822 | 10° C | 100% | 1011 hPa | - | 1.79 m/s, 240° | - | - |
| 1777862222 | 9.44° C | 100% | 1011 hPa | - | 0 m/s | - | - |
| 1777851422 | 8.33° C | 100% | 1012 hPa | - | 4.02 m/s, 350° | - | - |
| 1777847822 | 7.78° C | 100% | 1013 hPa | - | 3.13 m/s, 340° | - | - |
| 1777844222 | 7.22° C | 100% | 1013 hPa | - | 3.13 m/s, 360° | - | - |
| 1777837025 | 7.22° C | 100% | 1015 hPa | - | 4.02 m/s, 350° | - | - |
| 1777822622 | 8.33° C | 100% | 1019 hPa | - | 4.02 m/s, 350° | - | - |
| 1777801022 | 8.33° C | 87% | 1023 hPa | - | 3.13 m/s, 120° | - | - |
| 1777790221 | 6.67° C | 100% | 1024 hPa | - | 1.79 m/s, 30° | - | - |
| 1777783022 | 6.67° C | 93% | 1024 hPa | - | 0.89 m/s, 30° | - | - |
| 1777775822 | 6.11° C | 87% | 1025 hPa | - | 1.79 m/s, 190° | - | - |
| 1777772222 | 5.56° C | 87% | 1025 hPa | - | 3.13 m/s, 160° | - | - |
| 1777765022 | 6.67° C | 75% | 1024 hPa | - | 3.13 m/s, 200° | - | - |
| 1777757822 | 5.56° C | 81% | 1024 hPa | - | 0 m/s | - | - |
| 1777750622 | 5.56° C | 75% | 1024 hPa | - | 0.89 m/s, 250° | - | - |
| 1777743422 | 7.22° C | 61% | 1024 hPa | - | 1.79 m/s, 300° | - | - |
| 1777732622 | 11.67° C | 43% | 1022 hPa | - | 4.02 m/s, 300° | - | - |
| 1777725422 | 12.78° C | 43% | 1021 hPa | - | 5.81 m/s, 260° | - | - |
| 1777721822 | 12.22° C | 43% | 1020 hPa | - | 4.92 m/s, 290° | - | - |
| 1777700222 | 9.44° C | 57% | 1019 hPa | - | 4.92 m/s, 290° | - | - |
| 1777693022 | 5° C | 75% | 1018 hPa | - | 5.81 m/s, 270° | - | - |
| 1777689422 | 4.44° C | 75% | 1018 hPa | - | 4.92 m/s, 230° | - | - |
| 1777682222 | 4.44° C | 70% | 1017 hPa | - | 7.15 m/s, 260° | - | - |
| 1777671422 | 2.78° C | 100% | 1016 hPa | - | 4.02 m/s, 210° | - | - |
| 1777667823 | 2.22° C | 100% | 1015 hPa | - | 3.13 m/s, 230° | - | - |
* Rain since midnight (hover to see other rain measurements)
** Current wind speed in m/s (hover to see current wind gust speed)